sat.trackr.live / text

‹ back to catalog

ONEWEB-0543

NORAD 55143 · 2023-004D

PAYLOAD ACTIVE UNKNOWN

§ Identity

Operator
Country
UK
Launch date
2023-01-10
Launch site
AFETR
Launch vehicle
Mass (kg)
RCS (m²)

Purposes: comms

External: N2YO · Heavens-Above · Gunter

§ Orbital elements

Epoch: 2026-09-19T11:28:51.879936Z

Period
109.20 min
Inclination
87.9158°
Eccentricity
0.0001889
Mean motion
13.18671305 rev/d
Perigee alt
1,188.4 km
Apogee alt
1,191.2 km
Semi-major
7,567.9 km
B*
8.3406e-3
RAAN
316.7299°
Arg perigee
96.5140°
Mean anomaly
263.6208°
Rev number
18,212

§ Raw data

ONEWEB-05431 55143U 23004D   26262.47837824  .00003302  00000+0  83406-2 0  99982 55143  87.9158 316.7299 0001889  96.5140 263.6208 13.18671305182122

JSON: /api/v1/satellites/55143 · /tle

For live sub-satellite position, see the globe view (requires WebGL).

§ Visibility from observer

Set your observer location to see the next 7 days of passes ≥ 10°. The values pass through the URL so the page stays shareable.

No JS? Fill the form by hand. The geolocation button needs JavaScript.